Flag for Denmark Weather past 2 weeks in Kolding, Denmark

Now
46 °F

Cool.


Feels Like: 44 °F
Forecast: 46 / 55 °F
Wind: 5 mph from Southwest

Location: Vamdrup

Current Time: May 27, 2015 at 10:45:30 PM

Latest Report: May 27, 2015 at 10:20 PM


Visibility: N/A

Pressure: 30.01 "Hg

Humidity: 87%

Dew point: 43 °F

Location of KoldingLocation

Historic Weather in Kolding — Graph

°F

Kolding temperature yesterday

Maximum temperature yesterday: 54 °F (at 10:50 AM)
Minimum temperature yesterday: 43 °F (at 2:20 AM)
Average temperature yesterday: 47 °F

Past Weeks' High & Low Weather Summary

 TemperatureHumidityPressure
High63 °F (May 22, 3:50 PM)100% (May 18, 9:50 PM)30.24 "Hg (May 18, 9:50 PM)
Low39 °F (May 15, 4:20 AM)51% (May 25, 1:50 PM)29.45 "Hg (May 19, 12:50 AM)
Average49 °F80%29.95 "Hg
* Reported May 12 9:20 PM — May 27 9:50 PM, Kolding, Weather by CustomWeather, © 2015

Note: Actual official high and low records may vary slightly from our data, if they occured in-between our weather recording intervals... More about our weather records

Advertising

Kolding weather history for previous 24 hours

 ConditionsComfort  
Time TempWeatherWind HumidityBarometerVisibility
9:50 PM
Wed, May 27
48 °FCool.6 mph76%30.01 "HgN/A
9:20 PM48 °FCool.6 mph76%30.04 "HgN/A
8:50 PM52 °FCool.7 mph67%30.04 "HgN/A
8:20 PM54 °FCool.12 mph63%30.04 "HgN/A
7:50 PM54 °FCool.8 mph67%30.04 "HgN/A
7:20 PM54 °FCool.10 mph63%30.04 "HgN/A
4:50 PM55 °FScattered clouds.15 mph55%30.07 "HgN/A
3:50 PM55 °FScattered clouds.15 mph59%30.09 "HgN/A
2:50 PM55 °FScattered clouds.14 mph63%30.09 "HgN/A
1:50 PM54 °FScattered clouds.16 mph67%30.09 "HgN/A
12:50 PM52 °FScattered clouds.15 mph67%30.09 "HgN/A
11:50 AM54 °FScattered clouds.15 mph67%30.09 "HgN/A
11:20 AM52 °FBroken clouds.14 mph72%30.09 "HgN/A
10:50 AM52 °FPartly sunny.16 mph67%30.09 "HgN/A
10:20 AM52 °FSprinkles. Scattered clouds.15 mph72%30.09 "HgN/A
9:50 AM52 °FSprinkles. Scattered clouds.13 mph72%30.09 "HgN/A
9:20 AM48 °FSprinkles. Scattered clouds.10 mph87%30.09 "HgN/A
8:50 AM48 °FSprinkles. Broken clouds.16 mph82%30.09 "Hg2 mi
8:20 AM48 °FScattered clouds.12 mph82%30.07 "HgN/A
7:50 AM48 °FSprinkles. Broken clouds.13 mph82%30.09 "HgN/A
7:20 AM48 °FPartly sunny.15 mph82%30.07 "HgN/A
6:50 AM46 °FCool.12 mph82%30.07 "HgN/A
6:20 AM46 °FCool.12 mph82%30.07 "HgN/A
5:50 AM46 °FCool.12 mph82%30.07 "HgN/A
5:20 AM46 °FCool.12 mph87%30.07 "HgN/A
4:50 AM46 °FCool.13 mph87%30.07 "HgN/A
4:20 AM45 °FQuite cool.9 mph87%30.07 "HgN/A
3:50 AM45 °FQuite cool.10 mph87%30.07 "HgN/A
3:20 AM46 °FCool.12 mph82%30.04 "HgN/A
2:50 AM46 °FCool.10 mph87%30.07 "HgN/A
2:20 AM46 °FCool.13 mph87%30.04 "HgN/A
1:50 AM48 °FCool.15 mph87%30.07 "HgN/A
1:20 AM48 °FCool.13 mph82%30.04 "HgN/A
12:50 AM48 °FCool.12 mph82%30.04 "HgN/A
12:20 AM48 °FCool.10 mph82%30.04 "HgN/A
11:20 PM
Tue, May 26
46 °FCool.9 mph82%30.07 "HgN/A
10:50 PM46 °FCool.8 mph82%30.07 "HgN/A
10:20 PM46 °FCool.8 mph76%30.07 "HgN/A
Weather by CustomWeather, © 2015

See weather overviewHow to use our weather pages